Location: Newark
(43.6583°N, 1.6617°E)
Time: 21:13:23
(UTC+00:00)

Transit 4A - Pass Details

Date: 29 August 2019
Orbit: 867 x 978 km, 66.8° (Epoch: 18 October)

Event Time Altitude Azimuth Distance (km) Brightness Sun altitude
Rises 15:23:15 0° 180° (S) 3,652 11.2 33.3°
Reaches altitude 10° 15:26:02 10° 171° (S) 2,715 10.6 32.8°
Maximum altitude 15:31:38 34° 109° (ESE) 1,561 9.0 31.9°
Drops below altitude 10° 15:37:16 10° 48° (NE) 2,725 10.0 30.9°
Sets 15:40:02 0° 39° (NE) 3,667 10.6 30.4°
